Tracking 22287 objects as of 27-Jan-2021
HD Live streaming from Space Station
objects crossing your sky now

STARLINK-1402

Track STARLINK-1402 now!
10-day predictions
STARLINK-1402 is classified as:


NORAD ID: 45685
Int'l Code: 2020-035AE
Perigee: 553.7 km
Apogee: 555.0 km
Inclination: 53.0 °
Period: 95.6 minutes
Semi major axis: 6925 km
RCS: Unknown
Launch date: June 4, 2020
Source: United States (US)
Launch site: AIR FORCE EASTERN TEST RANGE (AFETR)
aabbcc
Your satellite tracking list
Your tracking list is empty




NASA's NSSDC Master Catalog

Two Line Element Set (TLE):
1 45685U 20035AE  21027.54173869  .00002929  00000-0  21551-3 0  9992
2 45685  53.0210 158.5373 0000931 114.4867 245.6219 15.06391857 37450
Source of the keplerian elements: AFSPC